Jefferson, NC

12:55 AM EDT on May 26, 2017 (GMT -0400)
Ashe County

Weather History for KGEV - December, 2012

Change the Weather History Date:

Saturday, December 29, 2012

  Actual Average Record
Temperature  
Mean Temperature 30 °F -  
Max Temperature 36 °F 46 °F 69 °F (2015)
Min Temperature 25 °F 23 °F 8 °F (1978)
Degree Days  
Heating Degree Days 34    
Moisture  
Dew Point 27 °F    
Average Humidity 83    
Maximum Humidity 97    
Minimum Humidity 67    
Precipitation  
Precipitation 0.27 in - - ()
Sea Level Pressure  
Sea Level Pressure 29.74 in    
Wind  
Wind Speed 7 mph (WNW)    
Max Wind Speed 31 mph    
Max Gust Speed 53 mph    
Visibility 6 miles    
Events Snow    
Averages and records for this station are not official NWS values.
T = Trace of Precipitation, MM = Missing Value Source: NWS Daily Summary

Daily Weather History Graph

Daily Weather History Graph

Search for Another Location

Airport or City:

Trip Planner

Search our weather history database for the weather conditions in past years. The results will help you decide how hot, cold, wet, or windy it might be!

Date:

Astronomy

Dec. 29, 2012 Rise Set
Actual Time 7:36 AM EST 5:19 PM EST
Civil Twilight 7:08 AM EST 5:47 PM EST
Nautical Twilight 6:35 AM EST 6:20 PM EST
Astronomical Twilight 6:04 AM EST 6:51 PM EST
Moon 6:48 PM EST (12/29) 8:11 AM EST (12/29)
Length of Visible Light 10h 39m
Length of Day
9h 42m
Full, 98% of the Moon is Illuminated
Dec 29
Full
Jan 4
Last Quarter
Jan 11
New
Jan 18
First Quarter
Jan 26
Full

Hourly Weather History & Observations

Time (EST) Temp. Windchill Dew Point Humidity Pressure Visibility Wind Dir Wind Speed Gust Speed Precip Events Conditions
12:15 AM 31.1 °F 26.4 °F 29.7 °F 94% 29.86 in 1.5 mi ESE 4.6 mph - 0.06 in   Overcast
12:35 AM 31.1 °F 26.4 °F 30.0 °F 96% 29.83 in 1.2 mi SE 4.6 mph - 0.11 in Snow Light Snow
12:55 AM 31.6 °F - 30.6 °F 96% 29.84 in 2.0 mi Calm Calm - 0.15 in   Overcast
1:15 AM 32.0 °F - 31.1 °F 96% 29.82 in 1.8 mi Calm Calm - 0.05 in Snow Light Snow
1:35 AM 32.0 °F 28.7 °F 30.9 °F 96% 29.81 in 2.5 mi SE 3.5 mph - 0.07 in   Overcast
1:55 AM 31.6 °F 28.3 °F 30.6 °F 96% 29.80 in 2.5 mi SE 3.5 mph - 0.08 in   Overcast
2:15 AM 31.8 °F - 30.7 °F 96% 29.80 in 1.8 mi Calm Calm - 0.01 in   Overcast
2:35 AM 31.6 °F 28.3 °F 30.6 °F 96% 29.79 in 2.5 mi SE 3.5 mph - 0.01 in   Overcast
2:55 AM 31.6 °F 27.0 °F 30.6 °F 96% 29.75 in 3.0 mi SE 4.6 mph - 0.02 in   Overcast
3:15 AM 31.6 °F - 30.6 °F 96% 29.79 in 4.0 mi Calm Calm - N/A   Overcast
3:35 AM 31.6 °F 28.3 °F 30.6 °F 96% 29.75 in 5.0 mi SSE 3.5 mph - N/A   Overcast
3:55 AM 31.1 °F - 29.8 °F 95% 29.74 in 10.0 mi Calm Calm - N/A   Overcast
4:15 AM 31.1 °F - 29.7 °F 94% 29.72 in 7.0 mi Calm Calm - N/A   Overcast
4:35 AM 31.3 °F - 29.8 °F 94% 29.71 in 3.0 mi Calm Calm - N/A   Overcast
4:55 AM 30.9 °F - 29.5 °F 94% 29.69 in 0.2 mi Calm Calm - N/A   Overcast
5:15 AM 30.9 °F - 29.8 °F 96% 29.68 in 0.2 mi Calm Calm - 0.01 in Snow Light Snow
5:35 AM 31.6 °F 28.3 °F 30.4 °F 95% 29.68 in 1.0 mi South 3.5 mph - 0.02 in   Overcast
5:55 AM 31.8 °F 28.5 °F 30.7 °F 96% 29.70 in 1.2 mi SE 3.5 mph - 0.02 in   Overcast
6:15 AM 31.8 °F - 30.7 °F 96% 29.70 in 2.5 mi Calm Calm - N/A   Overcast
6:35 AM 31.6 °F - 30.6 °F 96% 29.69 in 1.2 mi Calm Calm - N/A   Overcast
6:55 AM 31.6 °F - 30.7 °F 96% 29.69 in 1.0 mi Calm Calm - N/A   Overcast
7:15 AM 31.6 °F - 30.7 °F 96% 29.69 in 1.2 mi Calm Calm - N/A   Overcast
7:35 AM 32.7 °F 29.6 °F 32.0 °F 97% 29.68 in 7.0 mi West 3.5 mph - N/A Snow Light Snow
7:55 AM 33.8 °F - 32.2 °F 94% 29.68 in 10.0 mi Calm Calm - N/A   Overcast
8:15 AM 33.8 °F - 31.5 °F 91% 29.68 in 10.0 mi Calm Calm - N/A   Overcast
8:35 AM 33.8 °F - 31.5 °F 91% 29.68 in 10.0 mi Calm Calm - N/A   Mostly Cloudy
8:55 AM 33.8 °F 30.8 °F 31.3 °F 90% 29.68 in 3.0 mi West 3.5 mph - N/A   Mostly Cloudy
9:15 AM 33.8 °F 30.8 °F 31.5 °F 91% 29.68 in 7.0 mi WSW 3.5 mph - N/A Snow Light Snow
9:35 AM 34.3 °F 28.4 °F 32.0 °F 91% 29.68 in 7.0 mi West 6.9 mph - N/A Snow Light Snow
9:55 AM 35.4 °F 26.8 °F 31.1 °F 84% 29.68 in 7.0 mi West 12.7 mph 24.2 mph N/A Snow Light Snow
10:15 AM 35.2 °F 25.4 °F 31.1 °F 85% 29.69 in 5.0 mi West 16.1 mph 26.5 mph N/A Snow Light Snow
10:35 AM 35.1 °F 27.9 °F 31.5 °F 87% 29.69 in 2.5 mi WNW 9.2 mph 16.1 mph N/A Snow Light Snow
11:15 AM 34.7 °F 23.1 °F 31.1 °F 87% 29.68 in 2.5 mi West 21.9 mph 35.7 mph N/A Snow Light Snow
11:35 AM 34.7 °F 22.5 °F 29.5 °F 81% 29.67 in 10.0 mi West 24.2 mph 29.9 mph N/A   Overcast
11:55 AM 35.6 °F 24.8 °F 29.1 °F 77% 29.66 in 10.0 mi West 19.6 mph 33.4 mph N/A   Overcast
12:15 PM 35.8 °F 24.5 °F 30.0 °F 80% 29.64 in 10.0 mi West 21.9 mph 33.4 mph N/A   Overcast
12:35 PM 35.6 °F 23.2 °F 28.0 °F 74% 29.64 in 10.0 mi West 26.5 mph 44.9 mph N/A   Overcast
12:55 PM 36.5 °F 31.8 °F 26.8 °F 68% 29.64 in 10.0 mi WNW 5.8 mph 36.8 mph N/A   Overcast
1:15 PM 35.8 °F 24.2 °F 25.9 °F 67% 29.63 in 10.0 mi WNW 23.0 mph 41.4 mph N/A   Overcast
1:35 PM 34.7 °F 27.5 °F 25.7 °F 70% 29.64 in 10.0 mi West 9.2 mph 32.2 mph N/A   Overcast
1:55 PM 34.3 °F 23.2 °F 26.2 °F 72% 29.64 in 10.0 mi NW 19.6 mph 28.8 mph N/A   Overcast
2:15 PM 33.8 °F 24.3 °F 26.2 °F 74% 29.66 in 7.0 mi WNW 13.8 mph 25.3 mph N/A   Overcast
2:35 PM 33.6 °F 27.5 °F 25.9 °F 73% 29.66 in 10.0 mi West 6.9 mph 20.7 mph N/A   Overcast
2:55 PM 33.4 °F 23.1 °F 25.7 °F 73% 29.68 in 10.0 mi WNW 16.1 mph 21.9 mph N/A   Overcast
3:35 PM 32.4 °F 20.3 °F 25.9 °F 77% 29.69 in 5.0 mi WNW 20.7 mph 34.5 mph N/A   Haze
3:55 PM 32.0 °F 20.8 °F 25.3 °F 76% 29.70 in 10.0 mi NW 17.3 mph 25.3 mph N/A   Overcast
4:15 PM 31.6 °F 23.7 °F 25.7 °F 79% 29.71 in 7.0 mi WNW 9.2 mph 20.7 mph N/A   Overcast
4:35 PM 31.1 °F 22.4 °F 25.2 °F 79% 29.72 in 7.0 mi WNW 10.4 mph 19.6 mph N/A   Overcast
4:55 PM 30.7 °F 19.6 °F 24.6 °F 78% 29.73 in 3.0 mi WNW 16.1 mph 31.1 mph N/A   Haze
5:15 PM 30.2 °F 22.6 °F 24.6 °F 80% 29.75 in 5.0 mi West 8.1 mph 17.3 mph N/A   Haze
5:35 PM 30.2 °F 23.4 °F 24.4 °F 79% 29.76 in 7.0 mi WNW 6.9 mph - N/A   Overcast
5:55 PM 30.0 °F 20.0 °F 24.1 °F 79% 29.77 in 5.0 mi West 12.7 mph 28.8 mph N/A   Haze
6:15 PM 30.0 °F 21.1 °F 23.4 °F 76% 29.78 in 7.0 mi West 10.4 mph 19.6 mph N/A   Overcast
6:35 PM 29.8 °F 19.8 °F 22.8 °F 75% 29.79 in 10.0 mi WNW 12.7 mph 24.2 mph N/A   Overcast
6:55 PM 28.8 °F 21.7 °F 23.7 °F 81% 29.80 in 2.5 mi WNW 6.9 mph 17.3 mph N/A Snow Light Snow
7:15 PM 28.4 °F 19.7 °F 22.3 °F 78% 29.81 in 5.0 mi NW 9.2 mph 19.6 mph N/A Snow Light Snow
7:35 PM 28.2 °F 15.9 °F 20.1 °F 72% 29.82 in 7.0 mi WNW 17.3 mph 41.4 mph N/A Snow Light Snow
8:15 PM 27.3 °F 14.8 °F 18.3 °F 69% 29.83 in 5.0 mi NW 17.3 mph 36.8 mph N/A Snow Light Snow
8:35 PM 26.8 °F 13.7 °F 17.1 °F 67% 29.84 in 7.0 mi NW 18.4 mph 28.8 mph N/A Snow Light Snow
8:55 PM 26.4 °F 15.0 °F 16.9 °F 67% 29.85 in 10.0 mi NW 13.8 mph 29.9 mph N/A Snow Light Snow
9:15 PM 25.7 °F 17.1 °F 17.2 °F 70% 29.85 in 7.0 mi NW 8.1 mph 23.0 mph N/A Snow Light Snow
9:35 PM 25.7 °F 10.8 °F 16.9 °F 69% 29.84 in 10.0 mi NNW 23.0 mph 39.1 mph N/A Snow Light Snow
9:55 PM 25.7 °F 9.9 °F 16.7 °F 69% 29.84 in 10.0 mi NW 26.5 mph 44.9 mph N/A Snow Light Snow
10:15 PM 25.7 °F 10.5 °F 17.2 °F 70% 29.85 in 5.0 mi NW 24.2 mph 36.8 mph N/A Snow Light Snow
10:35 PM 25.3 °F 11.8 °F 17.2 °F 71% 29.85 in 5.0 mi NW 18.4 mph 40.3 mph N/A Snow Light Snow
10:55 PM 25.5 °F 9.4 °F 17.4 °F 71% 29.86 in 4.0 mi WNW 27.6 mph 52.9 mph N/A Snow Light Snow
11:15 PM 25.5 °F 8.6 °F 16.9 °F 70% 29.86 in 5.0 mi WNW 31.1 mph 41.4 mph N/A Snow Light Snow
11:35 PM 25.5 °F 11.3 °F 17.4 °F 71% 29.87 in 10.0 mi NW 20.7 mph 47.2 mph N/A   Overcast
11:55 PM 25.3 °F 8.9 °F 18.0 °F 74% 29.87 in 4.0 mi WNW 28.8 mph 44.9 mph N/A Snow Light Snow